This is the latest recevied weather packets stored in our database for station/object VY2CRA-4. If no packets are shown the sender has not sent any weather packets the latest 10 day(s).
| Time | Temp. | Humidity | Pressure | Rain* | Wind** | Luminosity | Snow |
|---|---|---|---|---|---|---|---|
| 1787515041 | 26.67° C | 46% | 1011.3 hPa | 0 mm | - | - | - |
| 1787513840 | 27.22° C | 46% | 1011.5 hPa | 0 mm | - | - | - |
| 1787512640 | 26.67° C | 44% | 1011.4 hPa | 0 mm | - | - | - |
| 1787511438 | 26.67° C | 44% | 1011.6 hPa | 0 mm | - | - | - |
| 1787510239 | 26.11° C | 45% | 1011.9 hPa | 0 mm | - | - | - |
| 1787507835 | 25.56° C | 47% | 1012.4 hPa | 0 mm | - | - | - |
| 1787506634 | 24.44° C | 50% | 1012.7 hPa | 0 mm | - | - | - |
| 1787505433 | 23.89° C | 50% | 1012.7 hPa | 0 mm | - | - | - |
| 1787501830 | 23.33° C | 52% | 1013.3 hPa | 0 mm | - | - | - |
| 1787500630 | 22.78° C | 52% | 1013.3 hPa | 0 mm | - | - | - |
| 1787499429 | 22.22° C | 52% | 1013.7 hPa | 0 mm | - | - | - |
| 1787498228 | 22.22° C | 52% | 1013.9 hPa | 0 mm | - | - | - |
| 1787497027 | 22.22° C | 52% | 1014.4 hPa | 0 mm | - | - | - |
| 1787495826 | 22.22° C | 53% | 1014.6 hPa | 0 mm | - | - | - |
| 1787494625 | 21.67° C | 53% | 1014.9 hPa | 0 mm | - | - | - |
| 1787493424 | 21.67° C | 53% | 1015.2 hPa | 0 mm | - | - | - |
| 1787492223 | 21.11° C | 53% | 1015.4 hPa | 0 mm | - | - | - |
| 1787491022 | 21.11° C | 53% | 1015.4 hPa | 0 mm | - | - | - |
| 1787489821 | 21.11° C | 53% | 1015.5 hPa | 0 mm | - | - | - |
| 1787488620 | 21.11° C | 53% | 1015.3 hPa | 0 mm | - | - | - |
| 1787487419 | 21.11° C | 53% | 1015.4 hPa | 0 mm | - | - | - |
| 1787486218 | 20.56° C | 53% | 1015.4 hPa | 0 mm | - | - | - |
| 1787485017 | 20.56° C | 53% | 1015.4 hPa | 0 mm | - | - | - |
| 1787483816 | 20.56° C | 53% | 1015.2 hPa | 0 mm | - | - | - |
| 1787482616 | 20° C | 53% | 1015.5 hPa | 0 mm | - | - | - |
* Rain since midnight (hover to see other rain measurements)
** Current wind speed in m/s (hover to see current wind gust speed)